Voltar ao catálogo

SHIYAN 3

SY-3

AtivoCiênciaSSO
NORAD 33433·PAYLOAD·🇨🇳 China

Lançado Nov 5, 2008 de Jiuquan Satellite Launch Center

Loading…

Próximas Passagens (próximas 24 horas)

TLE

AtualizadoSource: Space-Track

Época: Sep 14, 2026, 11:59 UTC

1 33433U 08056A   26257.49983467  .00000079  00000-0  46850-4 0  9990
2 33433  98.6032 283.1556 0012764 228.3628 131.6462 14.30826138931571

Acompanhe SHIYAN 3 em tempo real com AllMySat

Download on the App Store